Home > Weather > Duluth > Past weeks

Flag for USA Weather for the Past 2 Weeks in Duluth, Minnesota, USA

Now
43 °F

Sunny.


Feels Like: 43 °F
Forecast: 33 / 51 °F
Wind: No wind

Location: Sky Harbor Airport

Current Time: Apr 29, 2016 at 10:08:18 AM

Latest Report: Apr 29, 2016 at 9:33 AM


Visibility: 10 mi

Pressure: 30.22 "Hg

Humidity: 57%

Dew Point: 28 °F

Location of DuluthLocation

Historic Weather in Duluth — Graph

°F

Duluth Temperature Yesterday

Maximum temperature yesterday: 41 °F (at 11:14 AM)
Minimum temperature yesterday: 37 °F (at 12:14 AM)
Average temperature yesterday: 38 °F

High & Low Weather Summary for the Past Weeks

 TemperatureHumidityPressure
High64 °F (Apr 21, 11:53 AM)100% (Apr 21, 9:54 PM)30.45 "Hg (Apr 21, 9:54 PM)
Low32 °F (Apr 29, 5:53 AM)52% (Apr 21, 10:53 AM)29.73 "Hg (Apr 25, 1:33 PM)
Average39 °F86%30.11 "Hg
* Reported Apr 14 9:14 AM — Apr 29 9:14 AM, Duluth, Weather by CustomWeather, © 2016

Note: Actual official high and low records may vary slightly from our data, if they occured in-between our weather recording intervals... More about our weather records

Advertising

Duluth Weather History for the Previous 24 Hours

Scroll right to see more
 ConditionsComfort  
Time TempWeatherWind HumidityBarometerVisibility
9:14 AM
Fri, Apr 29
41 °FSunny.No wind66%30.22 "Hg10 mi
8:34 AM39 °FSunny.No wind70%30.21 "Hg10 mi
8:14 AM39 °FSunny.No wind70%30.21 "Hg10 mi
7:54 AM37 °FSunny.No wind87%30.21 "Hg10 mi
7:33 AM37 °FSunny.No wind87%30.20 "Hg10 mi
7:14 AM36 °FSunny.No wind87%30.20 "Hg10 mi
6:53 AM34 °FClear.No wind93%30.21 "Hg10 mi
6:34 AM34 °FClear.No wind87%30.20 "Hg10 mi
6:14 AM32 °FClear.3 mph93%30.20 "Hg10 mi
5:53 AM32 °FClear.3 mph93%30.19 "Hg10 mi
5:34 AM34 °FClear.No wind87%30.19 "Hg10 mi
5:14 AM34 °FClear.No wind87%30.19 "Hg10 mi
4:53 AM36 °FClear.No wind81%30.19 "Hg10 mi
4:34 AM36 °FClear.No wind81%30.19 "Hg10 mi
3:53 AM36 °FClear.No wind87%30.18 "Hg10 mi
3:34 AM36 °FClear.No wind87%30.17 "Hg10 mi
3:13 AM36 °FClear.No wind87%30.17 "Hg10 mi
2:54 AM36 °FClear.No wind93%30.16 "Hg10 mi
2:34 AM36 °FClear.No wind87%30.16 "Hg10 mi
2:13 AM37 °FClear.No wind87%30.16 "Hg10 mi
1:54 AM37 °FClear.No wind87%30.17 "Hg10 mi
1:34 AM36 °FClear.No wind87%30.17 "Hg10 mi
1:13 AM36 °FClear.No wind93%30.17 "Hg10 mi
12:54 AM37 °FClear.No wind87%30.16 "Hg10 mi
12:34 AM37 °FClear.No wind87%30.16 "Hg10 mi
11:54 PM
Thu, Apr 28
37 °FClear.No wind87%30.16 "Hg10 mi
11:34 PM37 °FClear.5 mph87%30.16 "Hg10 mi
11:13 PM37 °FClear.7 mph87%30.16 "Hg10 mi
10:54 PM37 °FClear.9 mph87%30.16 "Hg10 mi
10:14 PM37 °FClear.13 mph87%30.16 "Hg10 mi
9:33 PM37 °FClear.10 mph87%30.15 "Hg10 mi
8:54 PM39 °FSunny.18 mph81%30.14 "Hg10 mi
8:33 PM37 °FSunny.17 mph87%30.14 "Hg10 mi
8:14 PM37 °FScattered clouds.17 mph87%30.14 "Hg10 mi
7:53 PM37 °FPartly sunny.20 mph87%30.13 "Hg10 mi
7:34 PM37 °FOvercast.20 mph87%30.13 "Hg10 mi
6:53 PM37 °FOvercast.18 mph87%30.13 "Hg10 mi
6:34 PM37 °FPartly sunny.20 mph87%30.14 "Hg10 mi
6:14 PM37 °FOvercast.21 mph87%30.13 "Hg10 mi
5:33 PM39 °FPartly sunny.15 mph87%30.13 "Hg10 mi
5:14 PM39 °FOvercast.15 mph81%30.13 "Hg10 mi
4:54 PM39 °FPartly sunny.17 mph81%30.13 "Hg10 mi
4:34 PM39 °FPartly sunny.14 mph81%30.13 "Hg10 mi
4:13 PM39 °FOvercast.14 mph87%30.13 "Hg10 mi
3:54 PM39 °FOvercast.18 mph81%30.12 "Hg10 mi
3:34 PM39 °FPartly sunny.21 mph81%30.12 "Hg10 mi
3:13 PM39 °FPartly sunny.20 mph87%30.13 "Hg10 mi
2:54 PM39 °FScattered clouds.20 mph87%30.13 "Hg10 mi
2:33 PM39 °FScattered clouds.20 mph87%30.13 "Hg10 mi
2:14 PM39 °FPartly sunny.24 mph81%30.12 "Hg10 mi
1:54 PM39 °FPartly sunny.22 mph87%30.12 "Hg10 mi
1:33 PM39 °FSunny.24 mph81%30.11 "Hg10 mi
1:14 PM39 °FSunny.24 mph81%30.11 "Hg10 mi
12:54 PM39 °FSunny.24 mph81%30.10 "Hg10 mi
12:33 PM39 °FSunny.23 mph81%30.10 "Hg10 mi
12:14 PM39 °FSunny.25 mph81%30.10 "Hg10 mi
11:54 AM39 °FScattered clouds.25 mph81%30.10 "Hg10 mi
11:33 AM41 °FScattered clouds.23 mph81%30.10 "Hg10 mi
11:14 AM41 °FSunny.22 mph81%30.10 "Hg10 mi
10:54 AM39 °FSunny.23 mph87%30.10 "Hg10 mi
10:33 AM39 °FScattered clouds.22 mph87%30.10 "Hg10 mi
10:14 AM39 °FPartly sunny.25 mph87%30.09 "Hg10 mi
Weather by CustomWeather, © 2016

See weather overviewHow to use our weather pages